STARLINK-4710, 53799

Orbit data source: Space-Track

STARLINK-4710, 53799 is a payload satellite owned by SpaceX/Seattle (US) in LEO that was launched on Sun, 11 Sep 2022 UTC via an FALCON 9 launch vehicle from the Air Force Eastern Test Range (AFETR). Payload-class satellites include a variety of spacecraft equipped with specific instruments for various scientific and technological missions. These include communications satellites like Starlink; space stations such as the ISS; scientific satellites like the Hubble; Earth observation satellites from companies like Planet Labs, Umbra, and HawkEye 360; GPS; miniature CubeSats for education and research; and military/defense satellites.

Loading next visibility...
Identifier
53799, 2022-111AC
Orbit
LEO
Last TLE update
5 hours ago
Origin
Manufacturer
SpaceX/Seattle
Mission
Operational Commercial Communications
Bus & Motor
STARLINK, Unknown motor
Mass
305 kg wet, ~290 kg dry
Launch date (UTC)
2022-09-11 (3 years ago)
Launch vehicle
FALCON 9
Launch site
Air Force Eastern Test Range (AFETR)
Object type
Payload
Rocket body
Debris
Shape & HBR
Box + 1 Pan, 8.86 m
Radar Cross Section
13.562 m², Large (>1 m²)

Expand to show TLE details & history

TLE from 5 hours ago
0 STARLINK-4710
1 53799U 22111AC  25186.53668708 -.00002750  00000-0 -15470-3 0  9991
2 53799  53.2198 293.7064 0001223  95.6702 264.4430 15.08854861156507
Epoch: 2025-07-05T12:52Z
TLE epoch observation values (Epoch: 2025-07-05T12:52:49.763Z)
Latitude
-0.00001°
Longitude
176.72573°
Altitude
540.678 km
Speed
7.593 km/s
True Right ascension
19h 34m 49s
True Declination
0° 00' 00"
Sunlit
Object was in full shadow at epoch
Visualization orbit readout
Latitude
46.82514°
Longitude
-56.67144°
Altitude
544.009 km
Speed
7.596 km/s
Apparent Right ascension
22h 49m 45s
Apparent Declination
20° 21' 00"
Sunlit
Object is in daylight
Visualization observer readout
Local Sidereal Time
06:04:50
Azimuth
297.407° NW
Elevation
-0.472°
Doppler factor
1
Orbital elements
Apogee altitude
540.789 km
Perigee altitude
539.096 km
Semi-major axis
6,918.08 km
Eccentricity
0.00012
Inclination
53.2198°
RAAN
293.7064°
Arg. of periapsis
95.6702°
True anomaly
Unknown
Mean anomaly
264.443°
Eccentric anomaly
Unknown
Mean motion
3.77194 °/min
Orbital period
95.44 mins
BSTAR
-0.0001547
Loading maneuver chart data...
Loading SW <> Apogee altitude chart data...
Loading historical data...
Loading historical data...
Loading historical data...
Loading historical data...
Loading historical data...
Loading historical data...
Loading historical data...

STARLINK-4710 Visibility forecast

Observer location: undefined°, undefined°

Span
Click to sort rows by Start time (UTC) header in descending order
Start Az.
Max El. time (UTC)
Max El. Az.
Max El.
End time (UTC)
End Az.
5 mins2025-07-05 18:12:20.837Z277.987° WNW2025-07-05 18:15:20.837Z228.024° WSW18.761°2025-07-05 18:17:20.837Z193.282° SSW
6 mins2025-07-06 09:44:20.837Z219.745° SW2025-07-06 09:46:20.837Z171.586° S43.79°2025-07-06 09:50:20.837Z52.963° ENE
5 mins2025-07-06 11:24:20.837Z298.46° NW2025-07-06 11:26:20.837Z338.357° N20.959°2025-07-06 11:29:20.837Z28.089° NE
6 mins2025-07-06 16:25:20.837Z319.642° NNW2025-07-06 16:27:20.837Z28.235° NE43.304°2025-07-06 16:31:20.837Z122.962° SE
|